Flag for Canada Weather past 2 weeks in Dawson Creek, British Columbia, Canada

Now
46 °F

Cool.


Feels Like: 46 °F
Forecast: 47 / 79 °F
Wind: 2 mph from North

Location: Dawson Creek Airport

Current Time: Aug 1, 2014 at 5:57:28 AM

Latest Report: Aug 1, 2014 at 5:00 AM


Visibility: 9 mi

Pressure: 30.28 "Hg

Humidity: 93%

Dew point: 45 °F

Location of Dawson CreekLocation

Historic Weather in Dawson Creek — Graph

°F

Dawson Creek temperature yesterday

Maximum temperature yesterday: 77 °F (at 3:00 PM)
Minimum temperature yesterday: 52 °F (at 11:00 PM)
Average temperature yesterday: 64 °F

Past Weeks' High & Low Weather Summary

 TemperatureHumidityPressure
High88 °F (Jul 29, 4:00 PM)100% (Jul 18, 2:00 AM)30.27 "Hg (Jul 18, 2:00 AM)
Low43 °F (Jul 18, 3:00 AM)22% (Jul 29, 4:00 PM)29.54 "Hg (Jul 18, 10:00 PM)
Average62 °F68%29.94 "Hg
* Reported Jul 17 4:00 AM — Aug 1 4:00 AM, Dawson Creek, Weather by CustomWeather, © 2014

Note: Actual official high and low records may vary slightly from our data, if they occured in-between our weather recording intervals... More about our weather records

Advertising

Dawson Creek weather history for previous 24 hours

 ConditionsComfort  
Time TempWeatherWind HumidityBarometerVisibility
4:00 AM
Aug 1
46 °FCool.3 mph93%30.27 "Hg9 mi
3:00 AM46 °FCool.5 mph93%30.27 "Hg9 mi
2:00 AM48 °FCool.2 mph87%30.26 "Hg9 mi
1:00 AM52 °FCool.6 mph82%30.24 "Hg9 mi
12:00 AM50 °FCool.2 mph88%30.24 "Hg9 mi
11:00 PM
Jul 31
52 °FCool.2 mph82%30.23 "Hg9 mi
10:00 PM55 °FCool.2 mph77%30.21 "Hg9 mi
9:00 PM63 °FMild.5 mph64%30.18 "Hg8 mi
8:00 PM70 °FMild.5 mph53%30.16 "Hg9 mi
7:00 PM73 °FMild.3 mph31%30.16 "Hg9 mi
6:00 PM75 °FMild.6 mph29%30.16 "Hg9 mi
5:00 PM75 °FMild.3 mph29%30.16 "Hg9 mi
4:00 PM75 °FMild.6 mph27%30.15 "Hg9 mi
3:00 PM77 °FPleasantly warm.8 mph24%30.16 "Hg9 mi
2:00 PM75 °FMild.9 mph27%30.15 "Hg9 mi
1:00 PM75 °FMild.9 mph29%30.16 "Hg9 mi
12:00 PM73 °FMild.12 mph36%30.16 "Hg9 mi
11:00 AM68 °FMild.6 mph49%30.17 "Hg9 mi
10:00 AM68 °FMild.9 mph49%30.16 "Hg9 mi
9:00 AM64 °FMild.14 mph52%30.16 "Hg9 mi
8:00 AM63 °FMild.3 mph64%30.16 "Hg9 mi
7:00 AM59 °FCool.6 mph68%30.15 "Hg9 mi
6:00 AM54 °FCool.3 mph88%30.15 "Hg9 mi
5:00 AM54 °FCool.5 mph82%30.15 "Hg9 mi
Weather by CustomWeather, © 2014

See weather overviewHow to use our weather pages